{"data":{"norad_id":60392,"intl_designator":"2024-140P","name":"QIANFAN-14","alt_names":[],"object_type":"PAYLOAD","status":"ACTIVE","operator":null,"country":"PRC","launch_date":"2024-08-06","launch_site_code":"TAISC","launch_vehicle":null,"mission":null,"orbit_class":"UNKNOWN","rcs_meters":null,"size_class":null,"mass_kg":null,"dimensions":null,"purposes":[],"wikipedia_slug":null,"has_3d_model":false,"image_url":null,"decayed_at":null,"tle_current":{"epoch":"2026-09-22T20:20:32.170848Z","epoch_age_seconds":83495,"freshness":"FRESH","line1":"1 60392U 24140P   26265.84759457  .00000031  00000+0  29715-4 0  9992","line2":"2 60392  88.9638 269.7399 0018722 105.8030 254.5187 13.51025955105639","mean_motion":13.51025955,"eccentricity":0.0018722,"inclination_deg":88.9638,"raan_deg":269.7399,"arg_perigee_deg":105.803,"mean_anomaly_deg":254.5187,"bstar":2.9715e-5,"rev_number":10563,"period_min":106.58566511404,"perigee_km":1054.5446427393,"apogee_km":1082.4277786895,"semimajor_km":7446.6232107144,"source":"CELESTRAK","updated_at":"2026-09-23T09:00:20.600609Z"}}}